Location: Indian Springs
(36.5700°N, 115.6700°W)
Time: 20:24:50
(UTC-07:00)

Amateur Radio Satellites - All Passes

Search period start: 28 March 2017 19:54
Search period end: 29 March 2017 19:54
Location: Indian Springs, 36.5700°N, 115.6700°W

Satellite Date Start Highest point End Downlink Frequencies (MHz)
Time Altitude Azimuth
AO-85 28 Mar 19:56:04 20:00:26 49° 116° (ESE) 20:04:31 145.980
AAUSAT CUBESAT 2 28 Mar 19:59:46 20:03:45 53° 75° (ENE) 20:07:45 437.432
XW-2A 28 Mar 20:03:16 20:06:01 22° 264° (W) 20:08:47 145.665 - 145.685
UWE-3 28 Mar 20:03:43 20:08:15 53° 75° (ENE) 20:12:45 435.000/436.395/437.385
M-CUBED/EXP-1 PRIME 28 Mar 20:04:36 20:08:44 32° 294° (WNW) 20:12:50 437.505
STRAND 1 28 Mar 20:18:11 20:23:19 81° 286° (WNW) 20:28:23 437.568
SEEDS 28 Mar 20:23:09 20:26:57 34° 262° (W) 20:30:46 437.485
Oscar 11 28 Mar 20:27:09 20:31:12 40° 73° (ENE) 20:35:15 .
YUBILEINY 28 Mar 20:32:43 20:39:19 25° 278° (W) 20:45:56 435.215
PCSat 28 Mar 20:34:53 20:35:04 10° 259° (WSW) 20:35:16 145.827
CUTE 1.7 + AOD 2 28 Mar 20:36:11 20:38:53 17° 267° (W) 20:41:35 437.475
ZACube-1 28 Mar 20:38:46 20:43:19 76° 76° (ENE) 20:47:47 437.345
CUBEBUG 2 28 Mar 20:43:02 20:47:21 34° 263° (W) 20:51:40 437.445
HO-68 28 Mar 20:47:15 20:52:57 25° 265° (W) 20:58:41 435.675
BEESAT 3 28 Mar 20:48:24 20:50:45 15° 109° (ESE) 20:53:06 437.485
DELFI C3 28 Mar 20:57:20 21:00:30 24° 71° (ENE) 21:03:40 145.870
Tancredo 1 28 Mar 21:04:12 21:06:12 15° 333° (NNW) 21:08:13 437.200
AO-73 28 Mar 21:05:45 21:10:13 58° 260° (W) 21:14:38 145.935
PRISM 28 Mar 21:10:09 21:10:38 10° 92° (E) 21:11:06 437.425
ISS 28 Mar 21:15:52 21:17:52 15° 334° (NNW) 21:19:53 437.550
AO-85 28 Mar 21:38:20 21:41:01 16° 311° (NW) 21:43:37 145.980
UWE-3 28 Mar 21:42:48 21:44:57 13° 268° (W) 21:47:05 435.000/436.395/437.385
RS-15 28 Mar 21:49:29 22:01:49 86° 60° (ENE) 22:13:31 29.354- 29.394
Oscar 11 28 Mar 22:05:04 22:07:29 15° 267° (W) 22:09:54 .
BEESAT 3 28 Mar 22:24:21 22:28:00 36° 305° (NW) 22:31:42 437.485
TIGRISAT 28 Mar 22:32:01 22:36:14 47° 99° (E) 22:40:21 435.000
DELFI C3 28 Mar 22:32:15 22:35:12 20° 265° (W) 22:38:10 145.870
PRISM 28 Mar 22:42:07 22:46:11 54° 286° (WNW) 22:50:15 437.425
UNISAT 6 28 Mar 22:42:54 22:47:17 70° 102° (ESE) 22:51:33 437.425
BEESAT 2 28 Mar 22:45:33 22:49:26 57° 303° (WNW) 22:53:23 435.950
SO-50 28 Mar 22:48:13 22:52:23 36° 54° (NE) 22:56:31 436.795
SPROUT 28 Mar 23:02:29 23:03:20 11° 64° (ENE) 23:04:11 437.525
FO-29 28 Mar 23:08:01 23:13:46 66° 101° (E) 23:19:01 435.910
ESTCUBE 1 28 Mar 23:09:45 23:14:06 55° 74° (ENE) 23:18:29 437.505/2401.250
QB50P2 28 Mar 23:16:23 23:17:39 11° 92° (E) 23:18:55 145.880/145.840
LO-87 28 Mar 23:17:47 23:21:17 50° 260° (W) 23:24:49 145.935 - 145.965
DUCHIFAT 1 28 Mar 23:25:11 23:25:37 10° 91° (E) 23:26:03 145.980
DX 1 28 Mar 23:41:03 23:43:21 14° 65° (ENE) 23:45:40 434.975-435.025
AIST 2D 28 Mar 23:51:58 23:55:23 55° 100° (E) 23:58:47 435.315
50 SAT 29 Mar 00:00:18 00:03:20 30° 73° (ENE) 00:06:24 437.505
RS-15 29 Mar 00:04:13 00:12:38 23° 260° (W) 00:20:51 29.354- 29.394
NANOSAT C BR1 29 Mar 00:09:33 00:13:34 42° 99° (E) 00:17:32 145.865
TIGRISAT 29 Mar 00:10:16 00:12:28 14° 295° (WNW) 00:14:38 435.000
VELOX 1 29 Mar 00:10:29 00:14:52 79° 77° (ENE) 00:19:19 145.980
UKube-1 29 Mar 00:14:23 00:17:47 23° 69° (ENE) 00:21:11 .
EO-79 29 Mar 00:15:46 00:19:57 56° 101° (E) 00:24:03 145.935-145.965
SO-50 29 Mar 00:29:14 00:32:35 21° 249° (WSW) 00:35:55 436.795
SPROUT 29 Mar 00:34:24 00:38:40 63° 259° (W) 00:42:57 437.525
POLYITAN 1 29 Mar 00:44:46 00:48:57 63° 285° (WNW) 00:53:05 437.675
QB50P2 29 Mar 00:49:36 00:53:43 50° 286° (WNW) 00:57:47 145.880/145.840
ESTCUBE 1 29 Mar 00:49:41 00:51:12 12° 269° (W) 00:52:44 437.505/2401.250
FO-29 29 Mar 00:54:58 00:58:05 15° 300° (WNW) 01:01:03 435.910
DUCHIFAT 1 29 Mar 00:57:29 01:01:36 54° 285° (WNW) 01:05:40 145.980
BUGSAT 1 29 Mar 01:02:29 01:06:32 49° 100° (E) 01:10:30 437.445
DX 1 29 Mar 01:14:56 01:19:06 46° 260° (W) 01:23:19 434.975-435.025
O/OREOS (USA 219) 29 Mar 01:22:14 01:24:58 15° 58° (ENE) 01:27:39 437.305
BEESAT 29 Mar 01:25:06 01:26:00 10° 62° (ENE) 01:26:54 436.000
Oscar 19 29 Mar 01:27:54 01:32:20 28° 96° (E) 01:36:45 437.125/150
50 SAT 29 Mar 01:35:07 01:36:27 12° 267° (W) 01:37:48 437.505
ITUPSAT 1 29 Mar 01:41:04 01:43:56 16° 65° (ENE) 01:46:47 437.325
NANOSAT C BR1 29 Mar 01:46:36 01:48:53 14° 294° (WNW) 01:51:09 145.865
UKube-1 29 Mar 01:50:02 01:53:39 26° 263° (W) 01:57:19 .
EO-79 29 Mar 01:53:53 01:55:10 11° 295° (WNW) 01:56:28 145.935-145.965
Tancredo 1 29 Mar 01:55:17 01:58:03 26° 33° (NNE) 02:00:50 437.200
Gurwin Techsat 1B 29 Mar 02:04:10 02:09:03 36° 98° (E) 02:13:53 435.225
ISS 29 Mar 02:07:48 02:10:48 31° 34° (NE) 02:13:47 437.550
BUGSAT 1 29 Mar 02:39:47 02:41:24 12° 295° (WNW) 02:43:00 437.445
MOZHAYETS 4 29 Mar 02:50:56 02:55:02 33° 71° (ENE) 02:59:08
BEESAT 29 Mar 02:58:18 03:03:05 77° 257° (WSW) 03:07:52 436.000
O/OREOS (USA 219) 29 Mar 03:00:11 03:04:39 50° 254° (WSW) 03:09:04 437.305
Oscar 19 29 Mar 03:07:05 03:11:35 31° 291° (WNW) 03:16:04 437.125/150
ITUPSAT 1 29 Mar 03:16:40 03:21:18 50° 260° (W) 03:25:58 437.325
ITAMSAT 1 29 Mar 03:20:56 03:25:28 30° 97° (E) 03:29:59 435.822/435.867
Tancredo 1 29 Mar 03:31:25 03:34:07 26° 228° (SW) 03:36:50 437.200
AO-7 29 Mar 03:44:13 03:52:01 43° 101° (E) 03:59:45 .
Gurwin Techsat 1B 29 Mar 03:44:28 03:48:46 26° 293° (WNW) 03:53:04 435.225
ISS 29 Mar 03:44:29 03:47:09 23° 229° (SW) 03:49:48 437.550
KKS-1 29 Mar 03:48:22 03:52:12 29° 70° (ENE) 03:56:04 437.445
CUBESAT XI-V 29 Mar 03:51:19 03:54:55 23° 69° (ENE) 03:58:32 437.345
STARS 29 Mar 04:16:39 04:20:16 25° 69° (ENE) 04:23:55 437.465
MOZHAYETS 4 29 Mar 04:28:47 04:32:13 21° 265° (W) 04:35:39
AO-85 29 Mar 04:30:03 04:32:59 20° 51° (NE) 04:35:57 145.980
NO-84 29 Mar 04:55:48 04:57:59 19° 127° (SE) 05:00:06 435.350 FM
ITAMSAT 1 29 Mar 05:00:25 05:04:49 29° 292° (WNW) 05:09:13 435.822/435.867
M-CUBED/EXP-1 PRIME 29 Mar 05:15:01 05:17:32 17° 61° (ENE) 05:20:11 437.505
KKS-1 29 Mar 05:25:13 05:28:43 23° 264° (W) 05:32:15 437.445
CUBESAT XI-V 29 Mar 05:28:08 05:32:07 29° 263° (W) 05:36:08 437.345
AO-7 29 Mar 05:37:07 05:44:37 40° 297° (WNW) 05:52:07 .
YUBILEINY 29 Mar 05:42:35 05:45:25 12° 76° (ENE) 05:48:14 435.215
STARS 29 Mar 05:52:50 05:56:30 25° 264° (W) 06:00:11 437.465
STRAND 1 29 Mar 05:55:56 05:58:03 13° 62° (ENE) 06:00:10 437.568
AO-85 29 Mar 06:09:51 06:13:23 31° 246° (WSW) 06:17:02 145.980
XW-2F 29 Mar 06:13:12 06:16:10 22° 96° (E) 06:19:08 145.980 - 146.000
LilacSat-2 29 Mar 06:19:44 06:23:05 30° 97° (E) 06:26:24 437.200
NUDT-PHONESAT 29 Mar 06:29:29 06:32:45 29° 97° (E) 06:35:58 437.300
DOVE 4 29 Mar 06:32:48 06:38:06 67° 101° (E) 06:43:12 437.250
NO-84 29 Mar 06:33:01 06:35:23 22° 321° (NW) 06:37:44 435.350 FM
KAITUO 1B 29 Mar 06:40:26 06:43:57 42° 99° (E) 06:47:28 145.475/437.950
XW-2D 29 Mar 06:40:30 06:44:12 57° 100° (E) 06:47:53 145.860 - 145.880
BEESAT 3 29 Mar 06:43:01 06:46:58 53° 58° (ENE) 06:50:52 437.485
XW-2B 29 Mar 06:46:30 06:50:14 67° 101° (E) 06:53:57 145.730 - 145.750
M-CUBED/EXP-1 PRIME 29 Mar 06:48:23 06:51:41 31° 259° (W) 06:55:15 437.505
XW-2C 29 Mar 06:56:48 07:00:34 86° 282° (WNW) 07:04:18 145.795 - 145.815
BEESAT 2 29 Mar 07:05:30 07:09:17 36° 55° (NE) 07:13:00 435.950
CUTE-I 29 Mar 07:10:47 07:16:10 88° 284° (WNW) 07:21:29 437.470
XW-2A 29 Mar 07:27:20 07:30:03 22° 96° (E) 07:32:44 145.665 - 145.685
STRAND 1 29 Mar 07:31:25 07:36:34 74° 258° (WSW) 07:41:43 437.568
JUGNU 29 Mar 07:31:34 07:34:32 14° 175° (S) 07:37:31 437.505
YUBILEINY 29 Mar 07:31:55 07:40:38 77° 94° (E) 07:49:21 435.215
PCSat 29 Mar 07:45:28 07:48:32 15° 104° (ESE) 07:51:37 145.827
XW-2F 29 Mar 07:47:27 07:50:10 19° 290° (WNW) 07:52:53 145.980 - 146.000
LilacSat-2 29 Mar 07:54:51 07:57:05 15° 292° (WNW) 07:59:18 437.200
UWE-3 29 Mar 07:58:11 07:59:42 12° 91° (E) 08:01:11 435.000/436.395/437.385
NUDT-PHONESAT 29 Mar 08:04:18 08:06:23 15° 291° (WNW) 08:08:28 437.300
SEEDS 29 Mar 08:08:52 08:12:52 42° 99° (E) 08:16:52 437.485
DOVE 4 29 Mar 08:12:19 08:15:06 15° 296° (WNW) 08:17:51 437.250
HO-68 29 Mar 08:15:38 08:22:48 72° 104° (ESE) 08:29:57 435.675
KAITUO 1B 29 Mar 08:16:38 08:17:33 11° 293° (WNW) 08:18:27 145.475/437.950
CUTE 1.7 + AOD 2 29 Mar 08:21:30 08:25:44 82° 281° (W) 08:29:57 437.475
BEESAT 3 29 Mar 08:23:01 08:24:03 11° 252° (WSW) 08:25:05 437.485
ZACube-1 29 Mar 08:30:55 08:33:32 16° 93° (E) 08:36:08 437.345
CUBEBUG 2 29 Mar 08:36:08 08:40:27 61° 101° (E) 08:44:36 437.445
BEESAT 2 29 Mar 08:44:07 08:46:44 17° 250° (WSW) 08:49:20 435.950
CUTE-I 29 Mar 08:54:36 08:55:21 10° 300° (WNW) 08:56:07 437.470
AO-73 29 Mar 08:56:35 09:00:15 29° 96° (E) 09:03:51 145.935
XW-2A 29 Mar 09:00:35 09:02:37 15° 291° (WNW) 09:04:38 145.665 - 145.685
FO-29 29 Mar 09:16:16 09:22:32 28° 65° (ENE) 09:28:28 435.910
AAUSAT CUBESAT 2 29 Mar 09:19:21 09:23:25 55° 285° (WNW) 09:27:29 437.432
JUGNU 29 Mar 09:19:47 09:22:43 14° 185° (S) 09:25:41 437.505
PCSat 29 Mar 09:26:00 09:31:21 61° 299° (WNW) 09:36:44 145.827
TIGRISAT 29 Mar 09:27:52 09:32:01 32° 71° (ENE) 09:36:09 435.000
PRISM 29 Mar 09:28:29 09:32:32 72° 76° (ENE) 09:36:37 437.425
YUBILEINY 29 Mar 09:32:17 09:38:18 20° 293° (WNW) 09:44:23 435.215
UWE-3 29 Mar 09:32:20 09:36:26 47° 286° (WNW) 09:40:25 435.000/436.395/437.385
UNISAT 6 29 Mar 09:38:40 09:43:08 46° 73° (ENE) 09:47:34 437.425
SRMSAT 29 Mar 09:40:33 09:43:26 14° 172° (S) 09:46:18 437.500
SEEDS 29 Mar 09:45:57 09:48:09 14° 293° (WNW) 09:50:22 437.485
Oscar 11 29 Mar 09:52:21 09:56:38 67° 284° (WNW) 10:00:54 .
RS-15 29 Mar 10:04:06 10:09:23 14° 95° (E) 10:14:42 29.354- 29.394
HO-68 29 Mar 10:04:49 10:09:48 21° 301° (WNW) 10:14:47 435.675
ZACube-1 29 Mar 10:06:08 10:09:55 33° 288° (WNW) 10:13:38 437.345
DELFI C3 29 Mar 10:10:28 10:14:24 55° 101° (E) 10:18:19 145.870
CUBEBUG 2 29 Mar 10:15:33 10:16:27 11° 296° (WNW) 10:17:19 437.445
AIST 2D 29 Mar 10:25:18 10:27:14 14° 69° (ENE) 10:29:10 435.315
AO-73 29 Mar 10:33:19 10:36:16 19° 292° (WNW) 10:39:10 145.935
LO-87 29 Mar 10:48:24 10:50:27 14° 93° (E) 10:52:31 145.935 - 145.965
FO-29 29 Mar 10:59:25 11:07:06 58° 260° (W) 11:14:20 435.910
NANOSAT C BR1 29 Mar 10:59:28 11:02:51 23° 69° (ENE) 11:06:14 145.865
TIGRISAT 29 Mar 11:05:03 11:08:41 22° 265° (W) 11:12:19 435.000
EO-79 29 Mar 11:05:44 11:09:27 30° 71° (ENE) 11:13:12 145.935-145.965
ESTCUBE 1 29 Mar 11:06:06 11:08:29 14° 93° (E) 11:10:52 437.505/2401.250
UNISAT 6 29 Mar 11:17:13 11:20:01 16° 267° (W) 11:22:47 437.425
SRMSAT 29 Mar 11:28:29 11:31:48 15° 183° (S) 11:35:07 437.500
POLYITAN 1 29 Mar 11:34:17 11:38:31 67° 76° (ENE) 11:42:47 437.675
QB50P2 29 Mar 11:39:03 11:43:20 83° 74° (ENE) 11:47:37 145.880/145.840
DUCHIFAT 1 29 Mar 11:46:09 11:50:24 75° 75° (ENE) 11:54:38 145.980
DELFI C3 29 Mar 11:48:22 11:48:39 10° 295° (WNW) 11:48:57 145.870
BUGSAT 1 29 Mar 11:49:48 11:53:18 25° 70° (ENE) 11:56:49 437.445
AIST 2D 29 Mar 11:57:07 12:00:11 28° 263° (W) 12:03:16 435.315
VELOX 1 29 Mar 12:03:55 12:06:58 18° 94° (E) 12:09:59 145.980
RS-15 29 Mar 12:07:43 12:19:31 73° 114° (ESE) 12:31:47 29.354- 29.394
LO-87 29 Mar 12:20:46 12:23:56 28° 288° (WNW) 12:27:05 145.935 - 145.965
SPROUT 29 Mar 12:23:00 12:26:34 25° 96° (E) 12:30:05 437.525
NANOSAT C BR1 29 Mar 12:34:52 12:38:25 25° 264° (W) 12:41:59 145.865
ESTCUBE 1 29 Mar 12:41:10 12:45:29 46° 287° (WNW) 12:49:49 437.505/2401.250
EO-79 29 Mar 12:42:04 12:45:12 20° 265° (W) 12:48:22 145.935-145.965
Oscar 19 29 Mar 12:42:24 12:46:54 32° 69° (ENE) 12:51:25 437.125/150
50 SAT 29 Mar 12:59:15 13:02:39 47° 100° (E) 13:06:03 437.505
SO-50 29 Mar 13:00:48 13:04:15 21° 111° (ESE) 13:07:40 436.795
DX 1 29 Mar 13:05:27 13:09:28 34° 98° (E) 13:13:27 434.975-435.025
NO-84 29 Mar 13:07:32 13:10:37 49° 44° (NE) 13:13:57 435.350 FM
SRMSAT 29 Mar 13:19:00 13:20:09 11° 193° (SSW) 13:21:18 437.500
Gurwin Techsat 1B 29 Mar 13:22:42 13:27:45 45° 72° (ENE) 13:32:48 435.225
BUGSAT 1 29 Mar 13:25:11 13:28:34 23° 264° (W) 13:31:59 437.445
UKube-1 29 Mar 13:38:32 13:42:49 58° 101° (E) 13:47:05 .
VELOX 1 29 Mar 13:39:24 13:43:29 36° 289° (WNW) 13:47:33 145.980
SPROUT 29 Mar 13:58:55 14:02:20 23° 291° (WNW) 14:05:43 437.525
Oscar 19 29 Mar 14:21:57 14:26:11 26° 264° (W) 14:30:26 437.125/150
RS-15 29 Mar 14:22:14 14:33:05 36° 318° (NW) 14:44:13 29.354- 29.394
ITAMSAT 1 29 Mar 14:36:21 14:41:07 37° 70° (ENE) 14:45:54 435.822/435.867
SO-50 29 Mar 14:40:06 14:44:27 38° 306° (NW) 14:48:45 436.795
AO-7 29 Mar 14:40:23 14:48:15 48° 65° (ENE) 14:56:06 .
DX 1 29 Mar 14:42:17 14:45:23 19° 293° (WNW) 14:48:27 434.975-435.025
NO-84 29 Mar 14:46:37 14:47:55 12° 235° (SW) 14:49:15 435.350 FM
BEESAT 29 Mar 15:01:09 15:05:23 31° 97° (E) 15:09:36 436.000
Gurwin Techsat 1B 29 Mar 15:04:06 15:07:52 20° 266° (W) 15:11:40 435.225
UKube-1 29 Mar 15:16:50 15:18:19 12° 296° (WNW) 15:19:47 .
ITUPSAT 1 29 Mar 15:19:25 15:24:02 49° 100° (E) 15:28:37 437.325
O/OREOS (USA 219) 29 Mar 15:31:27 15:35:05 24° 102° (ESE) 15:38:46 437.305
ITAMSAT 1 29 Mar 16:16:29 16:20:37 24° 265° (W) 16:24:47 435.822/435.867
MOZHAYETS 4 29 Mar 16:24:42 16:29:16 74° 284° (WNW) 16:33:48
AO-7 29 Mar 16:33:42 16:41:05 35° 261° (W) 16:48:31 .
BEESAT 29 Mar 16:39:13 16:42:57 24° 292° (WNW) 16:46:42 436.000
RS-15 29 Mar 16:43:55 16:51:00 16° 351° (N) 16:58:05 29.354- 29.394
CUTE-I 29 Mar 16:53:14 16:56:01 14° 62° (ENE) 16:58:46 437.470
ITUPSAT 1 29 Mar 16:58:34 17:01:26 16° 295° (WNW) 17:04:16 437.325
LilacSat-2 29 Mar 17:01:11 17:02:30 12° 67° (ENE) 17:03:50 437.200
NUDT-PHONESAT 29 Mar 17:09:05 17:09:43 10° 66° (ENE) 17:10:21 437.300
O/OREOS (USA 219) 29 Mar 17:10:28 17:14:21 27° 298° (WNW) 17:18:16 437.305
KKS-1 29 Mar 17:17:17 17:21:48 82° 103° (ESE) 17:26:15 437.445
KAITUO 1B 29 Mar 17:19:22 17:21:27 15° 69° (ENE) 17:23:34 145.475/437.950
XW-2D 29 Mar 17:20:02 17:22:48 19° 70° (ENE) 17:25:34 145.860 - 145.880
XW-2B 29 Mar 17:25:50 17:28:48 22° 71° (ENE) 17:31:46 145.730 - 145.750
CUBESAT XI-V 29 Mar 17:26:07 17:30:48 80° 102° (ESE) 17:35:29 437.345
DOVE 4 29 Mar 17:35:21 17:39:52 48° 73° (ENE) 17:44:41 437.250
XW-2C 29 Mar 17:35:46 17:39:05 30° 72° (ENE) 17:42:25 145.795 - 145.815
STARS 29 Mar 17:43:36 17:48:01 68° 102° (ESE) 17:52:22 437.465
YUBILEINY 29 Mar 17:45:42 17:53:22 33° 73° (ENE) 18:01:01 435.215
PCSat 29 Mar 18:16:14 18:21:38 62° 61° (ENE) 18:26:58 145.827
XW-2F 29 Mar 18:24:41 18:28:25 60° 260° (W) 18:32:09 145.980 - 146.000
M-CUBED/EXP-1 PRIME 29 Mar 18:28:58 18:32:37 22° 99° (E) 18:36:13 437.505
Tancredo 1 29 Mar 18:29:49 18:32:26 25° 131° (SE) 18:35:05 437.200
CUTE-I 29 Mar 18:30:04 18:35:24 70° 258° (WSW) 18:40:47 437.470
LilacSat-2 29 Mar 18:32:44 18:36:22 42° 261° (W) 18:40:01 437.200
NUDT-PHONESAT 29 Mar 18:39:36 18:43:12 45° 261° (W) 18:46:48 437.300
HO-68 29 Mar 18:41:37 18:48:11 41° 66° (ENE) 18:54:46 435.675
AO-85 29 Mar 18:44:06 18:45:40 12° 109° (ESE) 18:47:12 145.980
ISS 29 Mar 18:45:50 18:48:47 33° 133° (SE) 18:51:45 437.550
KAITUO 1B 29 Mar 18:51:50 18:55:11 31° 263° (W) 18:58:33 145.475/437.950
XW-2D 29 Mar 18:53:44 18:56:49 23° 264° (W) 18:59:55 145.860 - 145.880
SEEDS 29 Mar 18:58:37 19:01:47 21° 70° (ENE) 19:04:58 437.485
XW-2B 29 Mar 19:00:00 19:02:53 21° 265° (W) 19:05:47 145.730 - 145.750
RS-15 29 Mar 19:00:59 19:10:18 24° 29° (NNE) 19:19:21 29.354- 29.394
XW-2C 29 Mar 19:11:03 19:13:19 15° 266° (W) 19:15:35 145.795 - 145.815
CUTE 1.7 + AOD 2 29 Mar 19:11:25 19:15:27 48° 74° (ENE) 19:19:30 437.475
DOVE 4 29 Mar 19:15:00 19:17:51 16° 269° (W) 19:20:49 437.250
STARS 29 Mar 19:23:07 19:23:43 10° 297° (WNW) 19:24:20 437.465
ZACube-1 29 Mar 19:25:42 19:27:05 11° 65° (ENE) 19:28:27 437.345
XW-2A 29 Mar 19:27:56 19:31:22 72° 259° (WSW) 19:34:49 145.665 - 145.685
CUBEBUG 2 29 Mar 19:31:04 19:35:28 39° 72° (ENE) 19:39:50 437.445
STRAND 1 29 Mar 19:44:32 19:49:26 46° 99° (E) 19:54:18 437.568
